2018-112C (43911 NORAD) Tracking and Keplerian Element Data

This shows tracking and keplerian element data for the satellite.

Feedback or suggestion? Click here.




ElementValue
Catalog43911
Name2018-112C
Epoch Orbit280
Epoch Day16.85434123
Epoch Year2019
RAAN95.2217
Inclination50.0143
Eccentricity0.0008508
Argument of Perigee343.7482
Mean Anonmoly125.0856
Mean Motion15.1588958
Decay Rate8.61E-06
L11 43911U 18112C 19016.85434123 .00000861 00000-0 60259-4 0 9999
L22 43911 50.0143 95.2217 0008508 343.7482 125.0856 15.15889580 2808

Live tracking and technical data element details for 2018-112C (NORAD 43911). 2018-112C can be tracked NOW for your location showing map with azimuth and elevation plus other details from your city location.

Track the satellite on the map from your city or location and see movement details for azimuth, elevation, latitude, longitude, range, height, and movement on the map or in text.







IsCatalogInMostPopularTable: catalog: 43911, numindb: 16
Update: records affected: 1



GetName: 43911 2018-112C

Hit Count: updated at: Thu, 17 Jan 2019 15:52:35 GMT